Location: Eymir
(36.7333°N, 29.7833°E)
Time: 18:17:42
(UTC+00:00)

Cosmos 1943 Rocket - Pass Details

Date: 14 January 2026
Orbit: 811 x 842 km, 71.0° (Epoch: 17 February)

Event Time Altitude Azimuth Distance (km) Brightness Sun altitude
Rises 03:54:13 0° 211° (SSW) 3,326 5.1 -15.6°
Reaches altitude 10° 03:56:41 10° 215° (SW) 2,394 4.4 -15.1°
Maximum altitude 04:02:04 59° 294° (WNW) 936 2.1 -14.0°
Drops below altitude 10° 04:07:29 10° 14° (NNE) 2,402 4.5 -13.0°
Sets 04:09:57 0° 18° (NNE) 3,338 5.3 -12.5°
